Location: Ravensburg
(47.7866°N, 9.6124°E)
Time: 10:37:34
(UTC+02:00)

AO-73 - Pass Details

Date: 24 March 2026
Orbit: 514 x 567 km, 97.8° (Epoch: 18 April)

Event Time Altitude Azimuth Distance (km) Brightness Sun altitude
Rises 05:37:24 0° 355° (N) 2,651 ? -7.4°
Reaches altitude 10° 05:40:28 10° 327° (NNW) 1,752 ? -6.9°
Maximum altitude 05:42:13 13° 300° (WNW) 1,569 ? -6.6°
Drops below altitude 10° 05:43:57 10° 272° (W) 1,744 ? -6.3°
Enters shadow 05:44:43 - 263° (W) 1,915 ? -6.2°
